User: anonymous   Login
Location: Fort Wayne
(41.1310°N, 85.1290°W)
Time: 19:18:28
(UTC-04:00)
Language:

IDEFIX/ARIANE 42P - Orbit

View from above orbital plane
View from above orbital plane
View from above satellite
View from above satellite

Ground track
Ground track

The orbit data is extracted from the following two-line orbital elements,

1 27422U 02021B   15115.49047688  .00000291  00000-0  13067-3 0  9993
2 27422 098.2617 147.4844 0013145 044.5946 315.6292 14.29170095674733
Epoch (UTC): 25 April 2015 11:46:17
Eccentricity: 0.0013145
inclination: 98.2617°
perigee height: 785 km
apogee height: 804 km
right ascension of ascending node: 147.4844°
argument of perigee: 44.5946°
revolutions per day: 14.29170095
mean anomaly at epoch: 315.6292°
orbit number at epoch: 67473

The dashed part of the orbit path shows where the satellite is in the earth's shadow,  

DLR